Preview of NWS' New Version of Forecast
This preview is not operational and should not be used for support decisions.

Regional Weather Roundup (RWR)

Issued by National Weather Service (NWS)

                            
000
ASUS45 KBOU 172110
RWRCO 

WEATHER ROUNDUP FOR COLORADO
NATIONAL WEATHER SERVICE DENVER/BOULDER CO
300 PM MDT WED APR 17 2019

NOTE: "FAIR" INDICATES FEW OR NO CLOUDS BELOW 12000 FEET WITH NO
SIGNIFICANT WEATHER AND/OR OBSTRUCTIONS TO VISIBILITY.

COZ001>005-013-030-031-172200-
...NORTHWEST COLORADO...
  
CITY           SKY/WX    TMP DP  RH WIND       PRES   REMARKS
CRAIG          PTSUNNY   54  24  31 W6G17     30.08F                  
HAYDEN         FAIR      51  26  37 VRB7      30.10F                  
MEEKER         FAIR      55  22  27 W10       30.08F                  
RANGELY        FAIR      58  30  34 W6        30.08F                  
RABBIT EARS PA CLOUDY    30  30 100 W10G22    30.14S WCI  21          
STEAMBOAT SPGS FAIR      48  22  36 W16       30.08F                  
WALDEN         PTSUNNY   48  21  34 SW10      30.08S                  
$$

COZ006>008-011-172200-
...WEST CENTRAL VALLEYS...
  
CITY           SKY/WX    TMP DP  RH WIND       PRES   REMARKS
GRAND JUNCTION FAIR      64  31  28 NW12      30.00F                  
MONTROSE       FAIR      62  31  31 W17G28    30.02S                  
EAGLE          PTSUNNY   56  30  37 W10       30.03S                  
RIFLE          FAIR      61  28  28 NW8G23    30.03F                  
DELTA          FAIR      69  27  20 NW17G28   29.98R                  
NUCLA          FAIR      63  30  29 NW20G25   30.04S                  
$$

COZ017>023-064>068-172200-
...SOUTHWEST COLORADO...
  
CITY           SKY/WX    TMP DP  RH WIND       PRES   REMARKS
DURANGO        FAIR      60  29  30 W10G20    29.93S                  
CORTEZ         FAIR      65  31  28 NW17G28   29.95R                  
PAGOSA SPRINGS FAIR      60  24  25 W10G20    29.94F                  
TELLURIDE      FAIR      46  28  49 NE3       30.10R                  
WOLF CREEK PAS FAIR      34  21  60 NW9       30.16S WCI  26          
$$

COZ009-010-012-014-032>034-037-058>063-172200-
...CENTRAL COLORADO...
  
CITY           SKY/WX    TMP DP  RH WIND       PRES   REMARKS
ASPEN          PTSUNNY   55  25  31 N15G22    30.02S                  
BUENA VISTA    FAIR      55  19  24 NW20G26   29.97R                  
COPPER MTN     FAIR      37  23  56 NW15G24   30.15S                  
BERTHOUD PASS  CLOUDY    27  16  63 MISG      30.14S                  
COTTONWOOD PAS CLOUDY    46  21  36 CALM      30.05R                  
GUNNISON       FAIR      55  27  34 VRB7G17   30.00S                  
GRANBY         CLOUDY    51  25  37 W17G26    30.06S                  
KREMMLING      FAIR      50  28  43 N17       30.07F                  
LEADVILLE      PTSUNNY   44  18  35 N14G23    30.05F                  
MONARCH PASS   FLURRIES  34  25  69 W17G26    30.23S WCI  23          
SALIDA         FAIR      55  31  39 SW8       30.03R                  
SUNLIGHT       FAIR      36  23  60 W12G21    30.20S                  
WILKERSON PASS FLURRIES  34  27  75 NE7       30.12S WCI  28          
$$

COZ069>075-172200-
...SAN LUIS VALLEY/SANGRE DE CRISTO MOUNTAINS...
  
CITY           SKY/WX    TMP DP  RH WIND       PRES   REMARKS
ALAMOSA        PTSUNNY   63  15  15 NW16G22   29.90F                  
DEL NORTE      CLOUDY    55  21  26 SW3       29.94F                  
LA VETA PASS   NOT AVBL                                               
SAGUACHE       CLOUDY    54  27  35 CALM      29.97S                  
$$

COZ035-036-038>040-172200-
...NORTHERN COLORADO FRONT RANGE...
  
CITY           SKY/WX    TMP DP  RH WIND       PRES   REMARKS
DENVER INTL AP PTSUNNY   59  35  40 N12       29.94F                  
AURORA         PTSUNNY   59  36  41 NE12      29.94F                  
FRONT RANGE AP PTSUNNY   59  36  41 NE3       29.95F                  
ERIE MUNI ARPT FAIR      60  36  40 CALM      29.98F                  
BOULDER MUN AP FAIR      59  37  44 E3        29.93F                  
CENTENNIAL     PTSUNNY   56  36  47 E9        29.95F                  
BROOMFIELD     MOSUNNY   57  37  47 NE5       29.95F                  
FORT COLLINS   FAIR      62  37  39 SW12G18   29.91F                  
LONGMONT       FAIR      63  38  40 SW5       29.94F                  
$$

COZ041-046-047-076>085-087-088-172200-
...PIKES PEAK/PALMER DIVIDE AND SOUTHERN FOOTHILLS...
  
CITY           SKY/WX    TMP DP  RH WIND       PRES   REMARKS
COLO. SPRINGS  CLOUDY    52  39  61 W17       29.96S                  
A. F. ACADEMY  PTSUNNY   55  32  41 N7        29.94F                  
SCHRIEVER AFB  NOT AVBL                                               
CHEYENNE MTN   LGT RAIN  45  36  69 W13G22    29.93F                  
ELLICOTT         N/A    N/A N/A N/A N20G28    29.92S                  
FALCON         NOT AVBL                                               
FORT CARSON    MOSUNNY   50  41  71 NW15      29.95R                  
LIMON          FAIR      61  33  35 N21G35    29.91F                  
MONUMENT HILL  PTSUNNY   50  34  53 N16G22    30.00S                  
CANON CITY     NOT AVBL                                               
WALSENBURG     NOT AVBL                                               
TRINIDAD       PTSUNNY   60  35  39 NE20      29.89S                  
$$

COZ042>045-048>051-090-091-172200-
...NORTHEAST COLORADO...
  
CITY           SKY/WX    TMP DP  RH WIND       PRES   REMARKS
GREELEY ARPT   FAIR      63  33  32 CALM      29.90F                  
AKRON          FAIR      62  34  35 N22G35    29.90F                  
BURLINGTON     FAIR      66  34  30 N23G36    29.86F                  
WRAY           FAIR      64  32  29 N23       29.88F                  
YUMA           NOT AVBL                                               
STERLING       FAIR      64  34  32 N22G29    29.88F                  
HOLYOKE        FAIR      64  32  29 N18G26    29.87F                  
FORT MORGAN      N/A     65  30  26 NW18      29.91F                  
$$

COZ086-089-092>099-172200-
...SOUTHEAST COLORADO...
  
CITY           SKY/WX    TMP DP  RH WIND       PRES   REMARKS
PUEBLO         PTSUNNY   64  39  39 VRB6      29.86F                  
LA JUNTA       PTSUNNY   69  32  25 NE17G25   29.83F                  
LAMAR          FAIR      73  34  23 NE23G36   29.80S                  
SPRINGFIELD    NOT AVBL                                               
$$